sat.trackr.live / text

‹ back to catalog

STARLINK-4693

NORAD 53605 · 2022-104T

PAYLOAD ACTIVE UNKNOWN

§ Identity

Operator
Country
US
Launch date
2022-08-28
Launch site
AFETR
Launch vehicle
Mass (kg)
RCS (m²)

Purposes: comms

External: N2YO · Heavens-Above · Gunter

§ Orbital elements

Epoch: 2026-07-04T00:26:41.631360Z

Period
87.22 min
Inclination
53.1990°
Eccentricity
0.0009137
Mean motion
16.50918675 rev/d
Perigee alt
131.0 km
Apogee alt
142.9 km
Semi-major
6,515.1 km
B*
1.2351e-4
RAAN
38.4686°
Arg perigee
276.6795°
Mean anomaly
83.3218°
Rev number
21,378

§ Raw data

STARLINK-46931 53605U 22104T   26185.01853740  .13516996  12670-4  12351-3 0  99932 53605  53.1990  38.4686 0009137 276.6795  83.3218 16.50918675213789

JSON: /api/v1/satellites/53605 · /tle

For live sub-satellite position, see the globe view (requires WebGL).

§ Visibility from observer

Set your observer location to see the next 7 days of passes ≥ 10°. The values pass through the URL so the page stays shareable.

No JS? Fill the form by hand. The geolocation button needs JavaScript.